Time,TemperatureF,DewpointF,PressureIn,WindDirection,WindDirectionDegrees,WindSpeedMPH,WindSpeedGustMPH,Humidity,HourlyPrecipIn,Conditions,Clouds,dailyrainin,SolarRadiationWatts/m^2,SoftwareType,DateUTC
2013-09-18 00:22:00,51.0,40.0,-100.00,West,280,10.0,23.0,65,0.00,,,0.26,375.000000,,2013-09-18 00:22:00,
2013-09-18 00:32:00,51.0,40.0,-100.00,West,280,10.0,23.0,65,0.00,,,0.26,375.000000,,2013-09-18 00:32:00,
2013-09-18 00:42:00,51.0,40.0,-100.00,West,280,10.0,23.0,65,0.00,,,0.26,375.000000,,2013-09-18 00:42:00,
2013-09-18 00:52:00,51.0,40.0,-100.00,West,280,10.0,23.0,65,0.00,,,0.26,375.000000,,2013-09-18 00:52:00,
2013-09-18 01:21:00,51.0,40.0,-100.00,WNW,303,11.0,17.0,66,0.00,,,0.26,266.000000,,2013-09-18 01:21:00,
2013-09-18 01:32:00,51.0,40.0,-100.00,WNW,303,11.0,17.0,66,0.00,,,0.26,266.000000,,2013-09-18 01:32:00,
2013-09-18 01:42:00,51.0,40.0,-100.00,WNW,303,11.0,17.0,66,0.00,,,0.26,266.000000,,2013-09-18 01:42:00,
2013-09-18 01:52:00,51.0,40.0,-100.00,WNW,303,11.0,17.0,66,0.00,,,0.26,266.000000,,2013-09-18 01:52:00,
2013-09-18 02:22:00,47.0,36.0,-100.00,WNW,292,8.0,21.0,65,0.00,,,0.26,97.000000,,2013-09-18 02:22:00,
2013-09-18 02:32:00,47.0,36.0,-100.00,WNW,292,8.0,21.0,65,0.00,,,0.26,97.000000,,2013-09-18 02:32:00,
2013-09-18 02:43:00,47.0,36.0,-100.00,WNW,292,8.0,21.0,65,0.00,,,0.26,97.000000,,2013-09-18 02:43:00,
2013-09-18 02:52:00,47.0,36.0,-100.00,WNW,292,8.0,21.0,65,0.00,,,0.26,97.000000,,2013-09-18 02:52:00,
2013-09-18 03:23:00,46.0,38.0,-100.00,NW,311,5.0,12.0,73,0.00,,,0.26,4.000000,,2013-09-18 03:23:00,
2013-09-18 03:35:00,46.0,38.0,-100.00,NW,311,5.0,12.0,73,0.00,,,0.26,4.000000,,2013-09-18 03:35:00,
2013-09-18 03:44:00,46.0,38.0,-100.00,NW,311,5.0,12.0,73,0.00,,,0.26,4.000000,,2013-09-18 03:44:00,
2013-09-18 03:54:00,46.0,38.0,-100.00,NW,311,5.0,12.0,73,0.00,,,0.26,4.000000,,2013-09-18 03:54:00,
2013-09-18 04:24:00,45.0,39.0,-100.00,NW,311,6.0,13.0,78,0.00,,,0.26,0.000000,,2013-09-18 04:24:00,
2013-09-18 04:34:00,45.0,39.0,-100.00,NW,311,6.0,13.0,78,0.00,,,0.26,0.000000,,2013-09-18 04:34:00,
2013-09-18 04:44:00,45.0,39.0,-100.00,NW,311,6.0,13.0,78,0.00,,,0.26,0.000000,,2013-09-18 04:44:00,
2013-09-18 04:54:00,45.0,39.0,-100.00,NW,311,6.0,13.0,78,0.00,,,0.26,0.000000,,2013-09-18 04:54:00,
2013-09-18 05:23:00,46.0,39.0,-100.00,West,264,2.0,5.0,75,0.00,,,0.26,0.000000,,2013-09-18 05:23:00,
2013-09-18 05:33:00,46.0,39.0,-100.00,West,264,2.0,5.0,75,0.00,,,0.26,0.000000,,2013-09-18 05:33:00,
2013-09-18 05:42:00,46.0,39.0,-100.00,West,264,2.0,5.0,75,0.00,,,0.26,0.000000,,2013-09-18 05:42:00,
2013-09-18 05:52:00,46.0,39.0,-100.00,West,264,2.0,5.0,75,0.00,,,0.26,0.000000,,2013-09-18 05:52:00,
2013-09-18 06:22:00,46.0,39.0,-100.00,WSW,241,1.0,6.0,77,0.00,,,0.26,0.000000,,2013-09-18 06:22:00,
2013-09-18 06:33:00,46.0,39.0,-100.00,WSW,241,1.0,6.0,77,0.00,,,0.26,0.000000,,2013-09-18 06:33:00,
2013-09-18 06:42:00,46.0,39.0,-100.00,WSW,241,1.0,6.0,77,0.00,,,0.26,0.000000,,2013-09-18 06:42:00,
2013-09-18 06:52:00,46.0,39.0,-100.00,WSW,241,1.0,6.0,77,0.00,,,0.26,0.000000,,2013-09-18 06:52:00,
2013-09-18 07:22:00,45.0,38.0,-100.00,NW,310,3.0,6.0,77,0.00,,,0.26,0.000000,,2013-09-18 07:22:00,
2013-09-18 07:32:00,45.0,38.0,-100.00,NW,310,3.0,6.0,77,0.00,,,0.26,0.000000,,2013-09-18 07:32:00,
2013-09-18 07:42:00,45.0,38.0,-100.00,NW,310,3.0,6.0,77,0.00,,,0.26,0.000000,,2013-09-18 07:42:00,
2013-09-18 07:52:00,45.0,38.0,-100.00,NW,310,3.0,6.0,77,0.00,,,0.26,0.000000,,2013-09-18 07:52:00,
2013-09-18 08:22:00,44.0,39.0,-100.00,WSW,254,2.0,3.0,81,0.00,,,0.26,0.000000,,2013-09-18 08:22:00,
2013-09-18 08:32:00,44.0,39.0,-100.00,WSW,254,2.0,3.0,81,0.00,,,0.26,0.000000,,2013-09-18 08:32:00,
2013-09-18 08:42:00,44.0,39.0,-100.00,WSW,254,2.0,3.0,81,0.00,,,0.26,0.000000,,2013-09-18 08:42:00,
2013-09-18 08:52:00,44.0,39.0,-100.00,WSW,254,2.0,3.0,81,0.00,,,0.26,0.000000,,2013-09-18 08:52:00,
2013-09-18 09:22:00,41.0,38.0,-100.00,West,268,1.0,4.0,90,0.00,,,0.26,0.000000,,2013-09-18 09:22:00,
2013-09-18 09:33:00,41.0,38.0,-100.00,West,268,1.0,4.0,90,0.00,,,0.26,0.000000,,2013-09-18 09:33:00,
2013-09-18 09:43:00,41.0,38.0,-100.00,West,268,1.0,4.0,90,0.00,,,0.26,0.000000,,2013-09-18 09:43:00,
2013-09-18 09:53:00,41.0,38.0,-100.00,West,268,1.0,4.0,90,0.00,,,0.26,0.000000,,2013-09-18 09:53:00,
2013-09-18 10:23:00,40.0,39.0,-100.00,SSW,198,2.0,4.0,95,0.00,,,0.26,0.000000,,2013-09-18 10:23:00,
2013-09-18 10:33:00,40.0,39.0,-100.00,SSW,198,2.0,4.0,95,0.00,,,0.26,0.000000,,2013-09-18 10:33:00,
2013-09-18 10:42:00,40.0,39.0,-100.00,SSW,198,2.0,4.0,95,0.00,,,0.26,0.000000,,2013-09-18 10:42:00,
2013-09-18 10:53:00,40.0,39.0,-100.00,SSW,198,2.0,4.0,95,0.00,,,0.26,0.000000,,2013-09-18 10:53:00,
2013-09-18 11:22:00,38.0,36.0,-100.00,SE,128,0.0,4.0,93,0.00,,,0.26,0.000000,,2013-09-18 11:22:00,
2013-09-18 11:33:00,38.0,36.0,-100.00,SE,128,0.0,4.0,93,0.00,,,0.26,0.000000,,2013-09-18 11:33:00,
2013-09-18 11:42:00,38.0,36.0,-100.00,SE,128,0.0,4.0,93,0.00,,,0.26,0.000000,,2013-09-18 11:42:00,
2013-09-18 11:52:00,38.0,36.0,-100.00,SE,128,0.0,4.0,93,0.00,,,0.26,0.000000,,2013-09-18 11:52:00,
2013-09-18 12:22:00,36.0,35.0,-100.00,East,99,3.0,4.0,98,0.00,,,0.26,0.000000,,2013-09-18 12:22:00,
2013-09-18 12:32:00,36.0,35.0,-100.00,East,99,3.0,4.0,98,0.00,,,0.26,0.000000,,2013-09-18 12:32:00,
2013-09-18 12:42:00,36.0,35.0,-100.00,East,99,3.0,4.0,98,0.00,,,0.26,0.000000,,2013-09-18 12:42:00,
2013-09-18 12:52:00,36.0,35.0,-100.00,East,99,3.0,4.0,98,0.00,,,0.26,0.000000,,2013-09-18 12:52:00,